Location: Ch?enovice
(49.7164°N, 15.2160°E)
Time: 12:22:44
(UTC+00:00)

USA 267 - Pass Details

Date: 14 November 2025
Orbit: 1100 x 1108 km, 123.0° (Epoch: 21 November)

Event Time Altitude Azimuth Distance (km) Brightness Sun altitude
Rises 04:02:13 0° 57° (ENE) 3,925 7.0 -20.5°
Reaches altitude 10° 04:04:42 10° 57° (ENE) 2,964 6.2 -20.1°
Maximum altitude 04:11:16 83° 331° (NNW) 1,113 3.2 -19.0°
Enters shadow 04:15:46 22° 245° (WSW) 2,197 4.4 -18.3°
